Vorticity
6 6 7 6 6 7 6 5 6 6 6 6 6 7 7 7 6 7 9 10 -2 11 9 8 8 8 10 8 11 10 8 6 5 5 7 8 7 5 1 16 11 8 6 10 9
6 7 7 6 6 5 6 6 5 6 5 6 6 7 7 7 8 8 3 4 9 10 10 9 9 9 10 9 8 9 8 7 9 8 8 9 12 4 4 4 12 3 7 9 16
6 6 6 5 5 5 5 5 5 5 6 7 6 7 7 7 8 -1 10 10 9 4 7 8 9 8 9 10 11 6 5 10 6 9 7 6 6 9 9 10 8 10 8 8 7
6 6 6 6 6 5 5 4 5 5 5 5 7 6 9 8 11 11 12 2 8 8 10 11 13 12 9 9 11 8 10 11 10 11 10 8 11 9 9 9 6 7 5 12 9
6 6 6 6 6 5 5 4 5 5 5 6 7 9 9 7 13 12 2 8 11 12 12 9 6 5 10 6 7 7 8 5 8 7 7 9 9 9 12 14 10 4 6 13 7
6 6 6 6 5 5 5 5 5 5 5 5 9 8 6 14 15 1 7 10 12 10 7 6 7 8 9 9 11 8 10 10 12 10 8 11 16 4 19 8 15 11 13 5 13
6 6 6 5 6 5 5 5 5 5 5 6 9 7 19 13 -1 6 8 12 10 7 7 4 9 13 5 13 8 1 5 6 13 32 16 23 16 10 21 13 18 11 6 11 21
6 6 6 5 5 5 5 5 4 5 3 9 7 17 9 -3 8 6 8 10 8 6 6 5 9 10 8 10 11 10 22 18 2 -3 9 -10 7 20 6 15 20 12 11 22 13
6 6 6 6 5 5 5 6 5 5 6 6 12 14 13 4 9 6 10 8 7 8 5 7 7 10 14 19 10 9 0 4 17 12 16 10 8 8 23 47 25 13 14 22 21
6 6 6 6 6 5 5 6 4 4 13 4 21 17 -2 8 7 8 9 10 8 5 5 6 12 8 20 11 -19 -15 -1 2 -4 -2 -14 13 -9 7 11 13 6 4 12 21 19
6 6 6 6 6 6 6 6 6 13 -3 4 23 4 4 6 7 10 10 9 9 5 6 7 -1 31 4 7 11 8 5 4 10 13 23 -1 2 12 5 -2 13 13 16 11 19
6 6 7 7 6 6 6 6 7 2 6 21 20 1 9 6 4 14 7 10 8 9 5 6 43 1 3 2 12 13 6 -3 11 22 37 9 -7 8 14 12 12 8 13 13 19
7 6 6 6 6 6 6 5 6 6 10 24 20 -0 5 6 11 -1 13 5 4 10 -0 2 20 1 8 13 8 19 22 10 13 9 17 20 13 42 28 37 18 15 14 16 16
5 5 5 6 7 6 7 6 6 6 34 19 2 3 -1 8 19 6 8 8 8 2 10 22 -10 1 15 15 15 10 10 8 11 25 15 4 -24 -7 26 40 24 20 11 24 15
5 6 6 6 5 6 6 6 6 10 18 16 1 4 0 12 9 6 4 6 8 3 12 -17 2 15 20 8 8 -3 0 7 17 11 26 34 10 -15 7 -13 -0 -5 38 18 18
6 6 6 7 6 6 6 7 7 25 13 2 5 -3 8 9 10 3 9 4 12 13 15 -9 39 27 11 -8 11 22 8 27 38 38 25 34 -4 -1 -13 4 41 28 12 28 17
5 6 6 5 5 6 6 7 24 13 8 13 -5 0 7 14 7 13 2 7 11 23 -16 26 -4 13 8 14 10 2 10 17 11 13 -3 -3 41 -36 20 15 3 0 46 32 15
5 6 6 7 6 6 6 10 12 6 -2 -8 10 6 10 19 11 3 3 5 21 13 7 12 6 5 -34 25 -10 25 14 -6 15 5 -31 58 15 -18 -3 22 29 4 37 30 15
5 7 6 7 6 6 8 12 -11 1 16 -1 3 33 15 9 5 10 17 28 5 8 11 19 -10 19 41 -4 14 3 -6 -4 15 46 19 6 10 35 -24 26 42 17 34 17 8
7 6 5 6 7 6 7 -9 -15 -3 -10 4 3 13 -0 4 16 18 19 9 5 2 10 -9 12 18 -9 -5 38 5 5 19 9 9 14 12 11 -38 -17 39 19 35 38 22 12
12 7 6 7 6 6 -1 -3 6 14 10 15 7 -7 3 10 14 13 7 -7 26 -1 -1 6 32 -40 19 15 10 20 23 -7 36 9 2 10 -8 38 -25 30 26 22 37 24 19
1 13 4 14 6 7 2 4 7 12 4 8 5 6 18 10 13 22 -0 3 -1 7 2 21 13 -5 34 27 21 3 9 -12 29 -15 -4 4 6 16 -28 43 22 20 10 5 10
20 8 2 4 5 3 0 3 10 18 10 6 4 -3 -1 7 12 11 10 11 8 2 -10 5 -2 15 6 -1 -19 -2 -4 5 17 42 15 13 -40 9 8 38 24 40 -7 1 45
28 13 16 7 0 9 7 8 2 -2 4 13 8 7 6 5 9 -7 -9 2 4 9 17 -0 23 2 -34 -29 -6 2 16 22 26 15 -19 5 -19 -1 33 12 25 19 -0 -0 23
-12 24 -2 8 5 5 -8 0 13 14 6 4 12 15 18 9 8 15 17 1 1 17 27 21 8 8 8 4 31 25 9 2 14 23 -2 -28 -15 12 23 30 53 36 12 14 -2
16 -32 8 2 -5 41 12 1 -3 -5 10 13 6 13 5 5 8 3 9 8 14 9 10 0 13 -7 13 48 -11 13 38 8 25 32 16 23 -2 4 24 31 29 24 28 12 16
38 14 -10 34 8 7 -18 41 11 9 1 -1 1 3 3 5 4 10 9 7 2 8 11 19 23 1 22 -16 37 30 5 10 21 13 10 11 13 -2 26 21 19 21 8 11 8
Height
3150 3149 3149 3149 3149 3148 3147 3146 3144 3142 3140 3137 3135 3133 3131 3128 3125 3123 3120 3119 3116 3114 3112 3110 3109 3108 3108 3108 3107 3108 3107 3101 3103 3105 3106 3108 3109 3111 3109 3109 3111 3112 3113 3116 3119
3150 3150 3149 3148 3148 3147 3146 3144 3142 3140 3137 3135 3133 3131 3128 3125 3122 3120 3118 3115 3112 3111 3110 3108 3106 3105 3105 3105 3103 3103 3099 3099 3100 3100 3100 3100 3103 3104 3103 3102 3103 3106 3106 3110 3114
3150 3150 3149 3148 3146 3145 3144 3142 3140 3137 3135 3134 3131 3129 3126 3122 3119 3116 3114 3112 3110 3108 3106 3104 3102 3101 3100 3099 3100 3096 3095 3097 3095 3095 3094 3092 3093 3098 3093 3091 3098 3099 3101 3104 3108
3150 3149 3148 3147 3145 3143 3142 3139 3137 3136 3134 3131 3128 3125 3122 3120 3120 3115 3112 3110 3108 3105 3101 3099 3098 3097 3097 3096 3095 3092 3091 3092 3090 3090 3088 3088 3085 3083 3086 3086 3090 3090 3093 3096 3100
3148 3148 3147 3146 3144 3142 3140 3138 3136 3134 3131 3129 3126 3123 3120 3118 3116 3113 3110 3108 3106 3102 3099 3098 3096 3094 3093 3092 3090 3087 3087 3085 3083 3081 3079 3078 3077 3075 3074 3081 3081 3080 3083 3087 3092
3146 3146 3145 3144 3142 3140 3138 3137 3134 3132 3130 3127 3123 3120 3118 3117 3113 3111 3109 3105 3102 3100 3097 3095 3093 3091 3088 3086 3086 3082 3079 3077 3076 3074 3072 3070 3069 3068 3067 3073 3073 3072 3073 3079 3084
3143 3143 3143 3142 3141 3139 3136 3134 3133 3130 3128 3124 3122 3118 3116 3115 3112 3109 3106 3103 3100 3098 3096 3093 3090 3088 3084 3082 3078 3077 3073 3069 3068 3069 3065 3065 3060 3056 3061 3063 3063 3063 3064 3069 3075
3142 3141 3140 3139 3138 3137 3135 3133 3130 3127 3125 3123 3119 3116 3114 3112 3110 3107 3104 3100 3098 3095 3093 3090 3087 3085 3082 3078 3076 3073 3069 3063 3060 3061 3061 3062 3048 3049 3052 3052 3054 3055 3056 3060 3066
3140 3139 3138 3137 3136 3134 3133 3131 3128 3126 3123 3120 3117 3114 3112 3110 3107 3104 3101 3098 3095 3092 3090 3087 3084 3082 3079 3075 3072 3069 3064 3059 3055 3056 3056 3055 3042 3042 3043 3044 3044 3045 3047 3052 3057
3138 3137 3136 3135 3133 3131 3130 3128 3125 3123 3120 3117 3114 3114 3111 3107 3103 3101 3098 3095 3093 3090 3088 3086 3082 3078 3076 3074 3070 3067 3062 3056 3053 3051 3050 3046 3036 3035 3036 3038 3037 3037 3040 3043 3048
3135 3134 3133 3132 3131 3129 3128 3126 3125 3121 3117 3114 3111 3109 3107 3104 3101 3099 3095 3093 3090 3089 3086 3083 3080 3077 3074 3071 3067 3064 3059 3052 3047 3046 3042 3037 3028 3025 3030 3031 3029 3029 3032 3036 3040
3130 3130 3130 3129 3128 3126 3125 3124 3121 3119 3113 3109 3107 3106 3104 3101 3099 3096 3094 3091 3089 3087 3083 3081 3076 3075 3072 3068 3063 3060 3054 3044 3037 3038 3036 3028 3015 3017 3019 3019 3021 3022 3024 3028 3033
3127 3127 3126 3126 3125 3123 3122 3121 3119 3115 3111 3105 3104 3103 3102 3100 3096 3093 3092 3088 3087 3085 3081 3077 3076 3072 3068 3063 3059 3053 3048 3041 3037 3033 3030 3023 2999 3004 3007 3007 3011 3013 3016 3021 3026
3123 3123 3122 3121 3124 3121 3119 3117 3115 3113 3108 3105 3102 3101 3099 3096 3094 3091 3089 3088 3085 3081 3078 3073 3072 3068 3064 3060 3058 3048 3044 3038 3033 3032 3026 3023 3001 2997 2996 2997 3000 3002 3007 3013 3018
3119 3119 3119 3117 3117 3118 3118 3114 3112 3112 3110 3104 3100 3098 3096 3095 3092 3089 3087 3084 3083 3080 3077 3072 3067 3063 3060 3058 3054 3048 3042 3035 3030 3027 3025 3017 3015 2984 2988 2988 2991 2993 2997 3003 3011
3114 3115 3114 3114 3114 3114 3113 3112 3111 3112 3103 3099 3097 3096 3094 3091 3089 3086 3085 3083 3080 3075 3073 3070 3064 3060 3058 3056 3052 3045 3039 3030 3025 3023 3021 3009 3011 2981 2984 2982 2979 2982 2987 2993 3002
3109 3109 3111 3110 3111 3109 3110 3110 3111 3104 3102 3098 3095 3092 3090 3088 3086 3083 3082 3081 3080 3074 3068 3066 3062 3058 3056 3052 3048 3044 3040 3031 3028 3024 3016 3007 3005 2984 2983 2983 2979 2978 2978 2984 2993
3102 3103 3105 3106 3106 3105 3106 3108 3106 3098 3097 3095 3093 3090 3087 3086 3085 3081 3078 3077 3076 3073 3068 3064 3057 3057 3053 3052 3047 3043 3041 3038 3027 3024 3007 3003 2996 2985 2984 2979 2975 2973 2975 2980 2987
3095 3096 3098 3100 3101 3101 3103 3100 3096 3095 3094 3092 3090 3086 3084 3084 3084 3079 3075 3073 3073 3072 3071 3065 3058 3054 3050 3048 3047 3040 3037 3035 3027 3017 3011 2998 2991 2986 2982 2974 2970 2970 2971 2975 2984
3087 3088 3092 3093 3095 3096 3095 3091 3090 3090 3090 3089 3088 3086 3083 3081 3081 3078 3073 3072 3071 3069 3067 3064 3055 3051 3049 3046 3043 3040 3037 3032 3028 3019 3007 2996 2991 2986 2978 2972 2968 2966 2967 2973 2983
3080 3079 3082 3086 3088 3088 3083 3083 3084 3087 3087 3087 3084 3083 3080 3078 3076 3076 3071 3070 3068 3067 3065 3062 3058 3050 3046 3042 3039 3038 3035 3033 3028 3023 3013 3001 2992 2987 2981 2975 2970 2968 2970 2976 2984
3069 3069 3073 3077 3081 3075 3072 3077 3081 3081 3082 3081 3080 3079 3077 3075 3072 3073 3068 3067 3066 3065 3062 3060 3055 3047 3042 3038 3036 3035 3033 3032 3027 3021 3016 3008 2994 2988 2980 2974 2973 2974 2978 2984 2989
3056 3060 3063 3067 3065 3063 3067 3071 3073 3075 3076 3075 3075 3074 3073 3072 3072 3067 3065 3065 3064 3063 3060 3058 3053 3047 3039 3039 3036 3034 3031 3029 3025 3020 3012 3007 2994 2988 2978 2971 2973 2975 2979 2984 2988
3045 3045 3048 3051 3053 3056 3062 3064 3066 3069 3070 3071 3070 3070 3069 3068 3067 3064 3061 3062 3061 3059 3057 3055 3049 3048 3044 3037 3035 3028 3025 3024 3022 3018 3011 3002 2994 2984 2977 2973 2972 2974 2980 2982 2988
3022 3024 3030 3032 3038 3045 3057 3057 3058 3061 3064 3065 3064 3065 3065 3064 3062 3060 3059 3058 3058 3055 3052 3050 3045 3043 3037 3033 3030 3025 3021 3018 3015 3011 3009 2996 2996 2990 2980 2975 2971 2972 2977 2984 2989
3003 3012 3019 3025 3031 3041 3044 3045 3051 3056 3058 3059 3060 3062 3060 3059 3060 3058 3056 3054 3052 3051 3049 3047 3042 3039 3029 3027 3026 3020 3017 3014 3009 3005 3000 2999 2997 2994 2986 2978 2975 2976 2980 2986 2992
2990 3000 3010 3015 3023 3032 3030 3039 3046 3050 3052 3054 3057 3056 3055 3056 3054 3053 3051 3049 3049 3047 3045 3043 3040 3038 3027 3025 3020 3018 3015 3011 3007 3005 3002 2998 2998 2994 2990 2984 2981 2982 2986 2990 2994